Location: Maiden
(35.5760°N, 81.2120°W)
Time: 02:23:31
(UTC-04:00)

Intercosmos 25 - Pass Details

Date: 02 August 2020
Orbit: 439 x 2877 km, 82.6° (Epoch: 11 August)

Event Time Altitude Azimuth Distance (km) Brightness Sun altitude
Rises 22:25:53 0° 356° (N) 3,495 8.1 -21.2°
Reaches altitude 10° 22:28:48 10° 0° (N) 2,245 7.0 -21.7°
Enters shadow 22:33:04 54° 58° (ENE) 688 3.6 -22.3°
